Location: Oshawa
(43.9000°N, 78.8670°W)
Time: 05:53:12
(UTC-04:00)

Cosmos 1500 - Visible Passes

Search period start: 30 August 2015 00:00
Search period end: 09 September 2015 00:00
Orbit: 509 x 531 km, 82.5° (Epoch: 29 August)

Date Brightness Start Highest point End Pass type
(mag) Time Alt. Az. Time Alt. Az. Time Alt. Az.
30 Aug 3.1 21:02:03 10° S 21:05:56 74° E 21:09:51 10° NNE visible
31 Aug 3.2 20:48:30 10° S 20:52:21 62° E 20:56:14 10° NNE visible
31 Aug 6.6 22:27:43 10° W 22:28:43 11° WNW 22:29:29 10° NW visible
01 Sep 3.4 20:34:58 10° S 20:38:46 52° E 20:42:35 10° NNE visible
01 Sep 6.5 22:13:16 10° W 22:15:01 12° WNW 22:16:35 10° NW visible
02 Sep 3.6 20:21:28 10° SSE 20:25:11 44° E 20:28:56 10° NNE visible
02 Sep 6.4 21:59:08 10° WSW 22:01:20 14° WNW 22:03:24 10° NW visible
03 Sep 6.4 21:45:06 10° WSW 21:47:39 16° WNW 21:50:05 10° NNW visible
04 Sep 6.2 21:31:08 10° WSW 21:33:59 18° WNW 21:36:43 10° NNW visible
05 Sep 6.0 21:17:15 10° WSW 21:20:18 21° WNW 21:23:17 10° NNW visible
06 Sep 5.8 21:03:23 10° SW 21:06:37 24° WNW 21:09:50 10° NNW visible
07 Sep 5.6 20:49:33 10° SW 20:52:58 28° WNW 20:56:20 10° NNW visible
08 Sep 5.3 20:35:45 10° SW 20:39:18 32° WNW 20:42:49 10° N visible
